Location: Hastringsfeld
(50.9620°N, 10.4787°E)
Time: 18:50:11
(UTC+00:00)

Cosmos 2082 Rocket - Pass Details

Date: 26 September 2023
Orbit: 834 x 852 km, 71.0° (Epoch: 07 December)

Event Time Altitude Azimuth Distance (km) Brightness Sun altitude
Exits shadow 02:43:34 42° 285° (WNW) 1,209 2.6 -22.9°
Maximum altitude 02:44:25 44° 309° (NW) 1,161 2.7 -22.8°
Drops below altitude 10° 02:49:53 10° 22° (NNE) 2,491 5.3 -22.1°
Sets 02:52:28 0° 29° (NNE) 3,428 6.3 -21.7°
